Time,TemperatureF,DewpointF,PressureIn,WindDirection,WindDirectionDegrees,WindSpeedMPH,WindSpeedGustMPH,Humidity,HourlyPrecipIn,Conditions,Clouds,dailyrainin,SoftwareType,DateUTC
2013-01-04 00:03:00,28.0,20.0,30.24,SW,236,5.0,10.0,72,0.00,,,0.01,,2013-01-04 05:03:00,
2013-01-04 00:12:00,28.0,20.0,30.24,SW,236,5.0,10.0,72,0.00,,,0.01,,2013-01-04 05:12:00,
2013-01-04 00:22:00,28.0,20.0,30.23,West,265,2.0,10.0,73,0.00,,,0.01,,2013-01-04 05:22:00,
2013-01-04 00:33:00,28.0,20.0,30.23,SW,221,5.0,12.0,73,0.00,,,0.01,,2013-01-04 05:33:00,
2013-01-04 00:42:00,28.0,20.0,30.23,SW,221,5.0,12.0,73,0.00,,,0.01,,2013-01-04 05:42:00,
2013-01-04 00:53:00,28.0,20.0,30.23,WSW,252,5.0,11.0,73,0.00,,,0.01,,2013-01-04 05:53:00,
2013-01-04 01:02:00,28.0,21.0,30.22,WSW,242,7.0,10.0,74,0.00,,,0.01,,2013-01-04 06:02:00,
2013-01-04 01:12:00,28.0,21.0,30.22,WSW,242,7.0,10.0,74,0.00,,,0.01,,2013-01-04 06:12:00,
2013-01-04 01:22:00,28.0,20.0,30.22,SW,236,5.0,12.0,73,0.00,,,0.01,,2013-01-04 06:22:00,
2013-01-04 01:33:00,28.0,20.0,30.22,SW,236,4.0,9.0,73,0.00,,,0.01,,2013-01-04 06:33:00,
2013-01-04 01:42:00,28.0,20.0,30.22,SW,236,4.0,9.0,73,0.00,,,0.01,,2013-01-04 06:42:00,
2013-01-04 01:52:00,28.0,20.0,30.22,WSW,241,5.0,11.0,73,0.00,,,0.01,,2013-01-04 06:52:00,
2013-01-04 02:02:00,28.0,20.0,30.22,WSW,245,4.0,10.0,72,0.00,,,0.01,,2013-01-04 07:02:00,
2013-01-04 02:12:00,28.0,20.0,30.22,WSW,245,4.0,10.0,72,0.00,,,0.01,,2013-01-04 07:12:00,
2013-01-04 02:22:00,28.0,20.0,30.23,WSW,256,7.0,12.0,72,0.00,,,0.01,,2013-01-04 07:22:00,
2013-01-04 02:32:00,28.0,20.0,30.23,SW,235,7.0,13.0,73,0.00,,,0.01,,2013-01-04 07:32:00,
2013-01-04 02:42:00,28.0,20.0,30.23,SW,235,7.0,13.0,73,0.00,,,0.01,,2013-01-04 07:42:00,
2013-01-04 02:52:00,28.0,21.0,30.24,WSW,241,5.0,7.0,74,0.00,,,0.01,,2013-01-04 07:52:00,
2013-01-04 03:02:00,28.0,21.0,30.24,WSW,242,6.0,13.0,74,0.00,,,0.01,,2013-01-04 08:02:00,
2013-01-04 03:12:00,28.0,21.0,30.24,WSW,242,6.0,13.0,74,0.00,,,0.01,,2013-01-04 08:12:00,
2013-01-04 03:22:00,28.0,21.0,30.24,West,270,6.0,12.0,76,0.00,,,0.01,,2013-01-04 08:22:00,
2013-01-04 03:32:00,28.0,21.0,30.24,WSW,246,6.0,14.0,76,0.00,,,0.01,,2013-01-04 08:32:00,
2013-01-04 03:42:00,28.0,21.0,30.24,WSW,246,6.0,14.0,76,0.00,,,0.01,,2013-01-04 08:42:00,
2013-01-04 03:53:00,28.0,22.0,30.23,WSW,246,6.0,11.0,77,0.00,,,0.01,,2013-01-04 08:53:00,
2013-01-04 04:02:00,28.0,21.0,30.23,West,259,4.0,10.0,76,0.00,,,0.01,,2013-01-04 09:02:00,